Content
SEND FEEDBACK

Daily
Averages
Monthly
Summary
United Kingdom

LONDON, ENGLAND


Home > Europe > United Kingdom > England
Elevation: 203 feet     Latitude: 51 09N     Longitude: 000 11W

WEATHER
 
SELECT A DAY
Number of Records: 294,675;   Date Range: 7/1/96 - 9/21/14
 
SHARE

PRINT THIS DATA

[ ← Previous Day ]
WEATHER ALMANAC - MAY 12, 2013
[ Next Day → ]
[ °C ]   °F
Weather ElementAverageHighLow
Temperature49.6 °F57.2 °F (12:50 pm)41 °F (1:50 am)
Dewpoint42.5 °F50 °F (7:20 pm)37.4 °F (3:50 am)
Humidity78.6 %94 % (5:20 pm)48 % (1:20 pm)
Barometer29.98 in30.04 in (9:50 am)29.92 in (12:50 am)
Wind Speed12 mph17.3 mph (2:20 pm)
Wind Gust25.3 mph (1:20 pm)
Weather ElementAverage
Visibility5.1 mi
Wind DirectionWSW (247.7 °)

Weather ElementTotal
Precipitation---
Heating Degree Days15.9 (Base 65)
Averaged from 47 records on May 12, 2013
WEATHER CONDITIONS BREAKOUT
WIND DIRECTION BREAKOUT
WEATHER BY HOUR - MAY 12, 2013
[ °C ]   °F
Local TimeTemperatureDewpointHumidityBarometerVisibilityWind DirectionWind SpeedGust SpeedPrecipitationEventsConditions
12:50 AM42.8 °F39.2 °F87 %29.92 inWSW (250°)10.4 mphClear
1:20 AM42.8 °F39.2 °F87 %29.92 inWSW (250°)9.2 mphClear
1:50 AM41.0 °F39.2 °F93 %29.92 inWSW (250°)10.4 mph21.9 mphClear
2:20 AM41.0 °F39.2 °F93 %29.95 inWSW (250°)11.5 mphClear
2:50 AM42.8 °F39.2 °F87 %29.95 inWSW (250°)10.4 mphClear
3:20 AM41.0 °F39.2 °F93 %29.95 inWSW (250°)10.4 mphClear
3:50 AM41.0 °F37.4 °F87 %29.95 inWest (260°)10.4 mphClear
4:20 AM41.0 °F37.4 °F87 %29.95 inWest (260°)10.4 mphClear
4:50 AM41.0 °F37.4 °F87 %29.95 inWest (260°)10.4 mphClear
5:20 AM42.8 °F39.2 °F87 %29.98 inWest (270°)13.8 mphClear
5:50 AM42.8 °F39.2 °F87 %29.98 inWest (270°)12.7 mphClear
6:20 AM42.8 °F39.2 °F87 %29.98 inWest (270°)12.7 mphClear
6:50 AM44.6 °F39.2 °F81 %29.98 inWest (270°)11.5 mphClear
7:20 AM44.6 °F39.2 °F81 %30.01 inWest (270°)12.7 mphClear
7:50 AM46.4 °F39.2 °F76 %30.01 in6.2 miWest (280°)12.7 mphPartly Cloudy
8:20 AM48.2 °F41.0 °F76 %30.01 in6.2 miWest (270°)13.8 mphPartly Cloudy
8:50 AM50.0 °F39.2 °F66 %30.01 in6.2 miWest (270°)12.7 mphPartly Cloudy
9:20 AM51.8 °F39.2 °F62 %30.01 in6.2 miWest (270°)12.7 mphPartly Cloudy
9:50 AM51.8 °F39.2 °F62 %30.04 in6.2 miWest (280°)12.7 mphScattered Clouds
10:20 AM51.8 °F39.2 °F62 %30.04 in6.2 miWest (280°)13.8 mphPartly Cloudy
10:50 AM53.6 °F39.2 °F58 %30.04 in6.2 miWest (260°)13.8 mphPartly Cloudy
11:20 AM53.6 °F37.4 °F54 %30.04 in6.2 miWSW (250°)15.0 mphScattered Clouds
11:50 AM55.4 °F39.2 °F54 %30.04 in6.2 miWest (260°)13.8 mphScattered Clouds
12:20 PM55.4 °F37.4 °F51 %30.04 in6.2 miWest (260°)15.0 mphScattered Clouds
12:50 PM57.2 °F39.2 °F51 %30.01 in6.2 miWest (260°)12.7 mphScattered Clouds
1:20 PM57.2 °F37.4 °F48 %30.01 in6.2 miWSW (250°)13.8 mph25.3 mphScattered Clouds
1:50 PM57.2 °F37.4 °F48 %30.01 in6.2 miWSW (240°)13.8 mphScattered Clouds
2:20 PM57.2 °F41.0 °F55 %30.01 in6.2 miWest (260°)17.3 mphMostly Cloudy
2:50 PM55.4 °F41.0 °F58 %30.01 in6.2 miWSW (240°)15.0 mphMostly Cloudy
3:20 PM55.4 °F42.8 °F63 %30.01 in6.2 miSW (230°)11.5 mphMostly Cloudy
3:50 PM53.6 °F42.8 °F67 %30.01 in6.2 miSW (220°)12.7 mphMostly Cloudy
4:20 PM53.6 °F44.6 °F72 %30.01 in5.6 miSW (230°)12.7 mphRainLight Rain
4:50 PM51.8 °F46.4 °F82 %29.98 in5.6 miSSW (210°)9.2 mphRainLight Rain
5:20 PM50.0 °F48.2 °F94 %29.98 in5.0 miSSW (210°)9.2 mphRainLight Rain
5:50 PM50.0 °F48.2 °F94 %29.98 in6.2 miSW (220°)10.4 mphMostly Cloudy
6:20 PM51.8 °F48.2 °F88 %29.95 in6.2 miSW (230°)11.5 mph23.0 mphRainLight Rain
6:50 PM51.8 °F48.2 °F88 %29.95 in5.6 miSW (230°)12.7 mphRainLight Rain
7:20 PM51.8 °F50.0 °F94 %29.95 in5.0 miSW (230°)11.5 mphMostly Cloudy
7:50 PM51.8 °F50.0 °F94 %29.95 in4.3 miSW (230°)12.7 mphOvercast
8:20 PM51.8 °F50.0 °F94 %29.92 in2.5 miSW (230°)10.4 mphHaze
8:50 PM51.8 °F50.0 °F94 %29.95 in2.2 miWSW (240°)12.7 mphRainLight Rain
9:20 PM51.8 °F50.0 °F94 %29.95 in1.6 miSW (230°)11.5 mphRainRain
9:50 PM51.8 °F50.0 °F94 %29.95 in2.2 miSW (230°)11.5 mphLight Drizzle
10:20 PM51.8 °F50.0 °F94 %29.95 in1.9 miSW (230°)9.2 mphRainLight Rain
10:50 PM51.8 °F50.0 °F94 %29.95 in2.5 miSW (230°)10.4 mphRainLight Rain
11:20 PM51.8 °F50.0 °F94 %29.95 in3.1 miSW (220°)10.4 mphHaze
11:50 PM51.8 °F50.0 °F94 %29.95 in3.7 miSW (230°)9.2 mphMostly Cloudy
Hourly data recorded from EGKK, located miles away from London, England







STORIES FROM OUR PARTNERS